This is the latest recevied weather packets stored in our database for station/object NorthRyde. If no packets are shown the sender has not sent any weather packets the latest 1 day(s).
| Time | Temp. | Humidity | Pressure | Rain* | Wind** | Luminosity | Snow |
|---|---|---|---|---|---|---|---|
| 1778018289 | 12.78° C | 81% | 1021.9 hPa | 0 mm | - | 76 W/m² | - |
| 1778018203 | 12.78° C | 81% | 1021.9 hPa | 0 mm | - | 58 W/m² | - |
| 1778018182 | 12.78° C | 81% | 1021.9 hPa | 0 mm | - | 53 W/m² | - |
| 1778017931 | 12.78° C | 82% | 1021.9 hPa | 0 mm | - | 40 W/m² | - |
| 1778017751 | 12.78° C | 82% | 1021.9 hPa | 0 mm | - | 30 W/m² | - |
| 1778017689 | 12.78° C | 82% | 1021.9 hPa | 0 mm | - | 30 W/m² | - |
| 1778017453 | 12.78° C | 83% | 1021.9 hPa | 0 mm | - | 28 W/m² | - |
| 1778017390 | 12.78° C | 83% | 1021.8 hPa | 0 mm | - | 33 W/m² | - |
| 1778017151 | 12.22° C | 85% | 1021.8 hPa | 0 mm | - | 33 W/m² | - |
| 1778017092 | 12.22° C | 85% | 1021.9 hPa | 0 mm | - | 39 W/m² | - |
| 1778017031 | 11.67° C | 85% | 1021.7 hPa | 0 mm | - | 40 W/m² | - |
| 1778016792 | 11.11° C | 86% | 1021.9 hPa | 0 mm | - | 67 W/m² | - |
| 1778016730 | 11.11° C | 86% | 1021.9 hPa | 0 mm | - | 86 W/m² | - |
| 1778016250 | 10.56° C | 86% | 1021.8 hPa | 0 mm | - | 74 W/m² | - |
| 1778016130 | 10.56° C | 86% | 1021.8 hPa | 0 mm | - | 72 W/m² | - |
| 1778016072 | 10.56° C | 86% | 1021.8 hPa | 0 mm | - | 74 W/m² | - |
| 1778015952 | 10.56° C | 86% | 1021.8 hPa | 0 mm | - | 74 W/m² | - |
| 1778015892 | 10.56° C | 86% | 1021.8 hPa | 0 mm | - | 77 W/m² | - |
| 1778015830 | 10.56° C | 86% | 1021.8 hPa | 0 mm | - | 77 W/m² | - |
| 1778015231 | 10.56° C | 85% | 1021.7 hPa | 0 mm | - | 18 W/m² | - |
| 1778015111 | 10.56° C | 85% | 1021.8 hPa | 0 mm | - | 18 W/m² | - |
| 1778014992 | 10.56° C | 85% | 1021.7 hPa | 0 mm | - | 16 W/m² | - |
| 1778014910 | 10.56° C | 85% | 1021.7 hPa | 0 mm | - | 14 W/m² | - |
| 1778014450 | 10.56° C | 85% | 1021.6 hPa | 0 mm | - | 12 W/m² | - |
| 1778014270 | 10.56° C | 85% | 1021.7 hPa | 0 mm | - | 11 W/m² | - |
* Rain latest hour (hover to see other rain measurements)
** Current wind speed in m/s (hover to see current wind gust speed)